Skip Page Navigation
NASA JPL Caltech
NASA Logo - Jet Propulsion Laboratory + View the NASA Portal
+ Center for Near-Earth Object Studies
JPL Home Earth Solar System Stars & Galaxies Technology
JPL Solar System Dynamics
BODIES ORBITS EPHEMERIDES TOOLS PHYSICAL DATA DISCOVERY FAQ SITE MAP
JPL Small-Body Database Browser
Search: [ help ]  
(2017 EB3)
Classification: Apollo [NEO]          SPK-ID: 3771022
Ephemeris | Orbit Diagram | Orbital Elements | Mission Design | Physical Parameters | Close-Approach Data ]

[ hide orbit diagram ]

For accurate long-term ephemerides, please instead use our Horizons system.This orbit viewer was implemented using two-body methods, and hence should not be used for determining accurate long-term trajectories (over several years or decades) or planetary encounter circumstances.


[ revert to old Java-based viewer ]

Orbital Elements at Epoch 2459000.5 (2020-May-31.0) TDB
Reference: JPL 19 (heliocentric ecliptic J2000)
 Element Value Uncertainty (1-sigma)   Units 
e .1525448159421321 6.0281e-07  
a 1.039397569245278 1.6776e-07 au
q .8808428583540576 4.8445e-07 au
i 2.839568025697876 9.9564e-06 deg
node 25.61386685351021 3.18e-05 deg
peri 247.5599643088206 4.5297e-05 deg
M 288.3825622660974 0.00023097 deg
tp 2459077.499383947423
(2020-Aug-15.99938395)
0.00026696 TDB
period 387.053476055179
1.06
9.3704e-05
2.565e-07
d
yr
n .9301040354141602 2.2517e-07 deg/d
Q 1.197952280136499 1.9335e-07 au
  Orbit Determination Parameters
   # obs. used (total)      63  
   data-arc span      608 days (1.66 yr)  
   first obs. used      2017-03-06  
   last obs. used      2018-11-04  
   planetary ephem.      DE431  
   SB-pert. ephem.      SB431-N16  
   condition code      2  
   norm. resid. RMS      .61413  
   source      ORB  
   producer      Otto Matic  
   solution date      2018-Dec-05 06:23:51  

Additional Information
 Earth MOID = .0133095 au 
 Jupiter MOID = 3.85476 au 
 T_jup = 5.888 
[ show covariance matrix ]

Ephemeris | Orbit Diagram | Orbital Elements | Mission Design | Physical Parameters | Close-Approach Data ]

Physical Parameter Table
Parameter Symbol Value Units Sigma Reference Notes
absolute magnitude H 25.0   n/a E2018X42  

[ show close-approach data ]
Ephemeris | Orbit Diagram | Orbital Elements | Mission Design | Physical Parameters | Close-Approach Data ]
ABOUT SSD CREDITS/AWARDS PRIVACY/COPYRIGHT GLOSSARY LINKS
FirstGov 2020-Dec-05 08:52 UT
(server date/time)  
NASA Home Page
Site Manager:   Ryan S. Park
Webmaster  Alan B. Chamberlin